Location: Byszew
(52.1813°N, 19.2693°E)
Time: 02:05:24
(UTC+00:00)

Cosmos 2154 Rocket - Pass Details

Date: 03 March 2021
Orbit: 966 x 996 km, 82.9° (Epoch: 11 April)

Event Time Altitude Azimuth Distance (km) Brightness Sun altitude
Rises 17:35:20 0° 184° (S) 3,657 7.0 -11.4°
Reaches altitude 10° 17:37:50 10° 184° (S) 2,710 6.3 -11.8°
Maximum altitude 17:44:02 82° 98° (E) 985 3.9 -12.7°
Drops below altitude 10° 17:50:16 10° 12° (NNE) 2,720 6.3 -13.6°
Sets 17:52:47 0° 11° (NNE) 3,671 7.0 -14.0°
